Weather in Yuribey

Russia / Yamalo-Nenets Autonomous Okrug     71°05′42″N   76°55′25″E
temp.,
°C
wind,
m/s
gust,
m/s
humid.,
%
clouds,
%
prec.,
mm/h
press.,
hPa
HPBL,
m
27 february, sat
sat2723:00−27s239890 0.0 102121
02:00−26s229688 0.0 102134
05:00−26sse339793 0.1 102267
08:00−26s459796 0.1 1022169
11:00−25s359798 0.1 1022184
14:00−25s469690 0.1 1023191
17:00−25s469795 0.1 1023188
20:00−25s5897100 0.1 1023224
28 february, sun
sun2823:00−25s589699 0.2 1023236
02:00−26s589598 0.1 1022232
05:00−26s699499 0.1 1022240
08:00−27s61094100 0.0 1022249
11:00−27s61194100 0.0 1021262
14:00−26s71196100 0.1 1022286
17:00−26s71194100 0.1 1021305
20:00−26s71293100 0.0 1020306
1 march, mon
mon123:00−26s71293100 0.0 1020325
02:00−26s71393100 0.0 1019349
05:00−26s71293100 0.0 1017386
08:00−26s71293100 0.0 1016404
11:00−25s81393100 0.0 1015455
14:00−25s71292100 0.1 1013571
17:00−24s71293100 0.1 1012494
20:00−24sse81393100 0.1 1011517
2 march, tue
tue223:00−24sse81392100 0.1 1010504
02:00−23sse81492100 0.0 1009520
05:00−23sse91592100 0.1 1008474
08:00−24sse9159097 0.0 1007407
11:00−22sse10168898 0.0 1008458
14:00−21sse101791100 0.0 1007519
17:00−20sse101696100 0.6 1007606
20:00−20s101696100 0.8 1007646
3 march, wed
wed323:00−20s91596100 1.6 1008638
02:00−20s91596100 0.8 1007603
05:00−20s91696100 1.5 1008528
08:00−20s91592100 0.4 1008504
11:00−21sse91591100 0.4 1008507
14:00−21sse91592100 0.0 1009496
17:00−21sse91593100 0.0 1009486
20:00−21sse91593100 0.0 1009496